OBJECT AY, 61781

Orbit data source: Space-Track

You're viewing an Uncataloged Satellite

Recently launched and/or uncataloged satellites may have evolving metadata. Metadata may include but not limited to: Owner, Maufacturer, Bus, Motor, and Mission.

OBJECT AY, 61781 is a satellite in SSO that was launched on Mon, 04 Nov 2024 UTC via a SOYUZ-2-1B launch vehicle from the Vostochny Cosmodrome (VOSTO). Unknown objects in Earth's orbit typically refer to objects detected orbiting the Earth but have not yet been identified or cataloged. These objects could be anything from previously untracked satellites, spent rocket stages, debris from satellite collisions, or even natural meteoroids temporarily captured by Earth's gravity.

Loading next visibility...
OBJECT AY details
Identifier
61781, 2024-199AY
Orbit
SSO
Last TLE update7 hours ago
Origin
Flag of TBDChechen State U (TBD)
ManufacturerYugo-Zapad. GU
MissionOperational spacecraft
Bus & MotorCUBESAT 3U, Unknown motor
Mass2.5 kg wet, 2.5 kg dry
Launch date (UTC)
2024-11-04 (2 months ago)
Launch vehicle
SOYUZ-2-1B
Launch site
Vostochny Cosmodrome (VOSTO)
Object typeUnknown
Shape & HBRUnknown
Radar Cross SectionMedium (>0.1 m² and <1 m²)

Expand to show TLE details & history

TLE from 7 hours ago
0 OBJECT AY
1 61781U 24199AY  24361.13451974  .00015694  00000-0  64262-3 0  9996
2 61781  97.3790 225.1233 0019124  64.2222 296.0986 15.24219959 51646
Epoch: 2024-12-26T03:13Z
Definitive object data (Epoch: 2024-12-26T03:13:42.505Z)
Latitude-0.00004°
Longitude81.57793°
Altitude490.464 km
Speed7.623 km/s
True Right ascension15h 00m 29s
True Declination0° 00' 00"
Sunlit
Object was in daylight at TLE epoch
Visualization TLE readout
Latitude4.51631°
Longitude-97.54931°
Altitude500.662 km
Speed7.612 km/s
Apparent Right ascension00h 54m 00s
Apparent Declination-21° 24' 12"
Sunlit
Object is in full shadow
Visualization observer readout
Local Sidereal Time09:38:55
Azimuth279.235° WNW
Elevation-44.814°
Doppler factor1
Orbital elements
Apogee altitude503.223 km
Perigee altitude476.953 km
Semi-major axis6,868.225 km
Eccentricity0.0019124
Inclination97.379°
RAAN225.1233°
Arg. of periapsis64.2222°
True anomaly295.90159°
Mean anomaly296.0986°
Eccentric anomaly296.00012°
Mean motion3.81308 °/min
BSTAR0.00064262
Orbital period94.41 mins
Loading maneuver chart data...
Loading historical data...
Loading historical data...
Loading historical data...
Loading historical data...
Loading historical data...
Loading historical data...
Loading historical data...

OBJECT AY Visibility forecast

Observer location: undefined°, undefined

Span
Click to sort rows by Start time (UTC) header in descending order
Start Az.
Max El. time (UTC)
Max El. Az.
Max El.
End time (UTC)
End Az.
4 mins2024-12-26 14:24:45.446Z108.689° ESE2024-12-26 14:26:45.446Z67.481° ENE18.807°2024-12-26 14:28:45.446Z28.043° NE
4 mins2024-12-26 15:58:45.446Z231.768° WSW2024-12-26 15:59:45.446Z254.103° W20.093°2024-12-26 16:02:45.446Z314.923° NW
4 mins2024-12-27 03:26:45.446Z51.422° ENE2024-12-27 03:28:45.446Z102.578° ESE24.86°2024-12-27 03:30:45.446Z147.382° SSE
|